Regional Weather Roundup
Issued by NWS

Home | Current Version | Previous Version | Text Only | Print | Product List | Glossary On
Versions: 1 2 3 4 5 6 7 8 9 10 11 12 13 14 15 16 17 18 19 20 21 22 23 24 25 26 27 28 29 30 31 32 33 34 35 36 37 38 39 40 41 42 43 44 45 46 47 48 49 50
000
ASUS44 KFWD 272315
RWRTX
NORTH TEXAS HOURLY WEATHER ROUNDUP
NATIONAL WEATHER SERVICE FORT WORTH TX
600 PM CDT THU APR 27 2017

NOTE: "FAIR" INDICATES FEW OR NO CLOUDS BELOW 12,000 FEET WITH NO
SIGNIFICANT WEATHER AND/OR OBSTRUCTIONS TO VISIBILITY.

TXZ118-119-280000-
DALLAS/FORT WORTH METROPLEX

CITY           SKY/WX    TMP DP  RH WIND       PRES   REMARKS
DFW AIRPORT    MOSUNNY   76  50  40 S15       29.59F
DALLAS LOVE    MOSUNNY   75  50  41 SE18G24   29.61F
FTW MEACHAM    SUNNY     78  49  35 S18       29.58F
DAL-EXECUTIVE  SUNNY     74  52  46 SE15G26   29.60F
FTW-ALLIANCE   PTSUNNY   76  49  38 S15G25    29.58F
FTW-NAS-JRB    SUNNY     77  47  34 SE21      29.59F
FTW-SPINKS     SUNNY     75  48  38 SE10G21   29.61F
ARLINGTON      SUNNY     76  49  38 SE20G25   29.60F
GRAND PRAIRIE  SUNNY     75  48  38 SE12G23   29.62F
ADDISON        SUNNY     73  48  40 SE20G29   29.62F
MESQUITE       SUNNY     73  48  40 SE15      29.65S
LANCASTER      SUNNY     74  53  47 SE12      29.63F
$$

TXZ091>094-102>105-117-120-121-131>134-280000-
NORTH CENTRAL TEXAS

CITY           SKY/WX    TMP DP  RH WIND       PRES   REMARKS
SHRMAN/DENISON SUNNY     71  50  46 SE15G22   29.63F
GAINESVILLE    SUNNY     71  47  42 S17G24    29.61F
BOWIE          SUNNY     75  48  38 SE12G29   29.55F
BRIDGEPORT     SUNNY     75  48  37 S16G23    29.58F
DECATUR        SUNNY     75  46  35 SE16G25   29.58F
DENTON         SUNNY     75  51  43 S15       29.59F
MCKINNEY       SUNNY     73  51  46 SE18      29.62F
BONHAM         SUNNY     70  50  49 S15G22    29.64S
GREENVILLE     SUNNY     77  50  38 SE17      29.64F
ROCKWALL       SUNNY     74  50  43 S14G23    29.63F
TERRELL        SUNNY     75  50  41 S15       29.63F
WAXAHACHIE     SUNNY     74  52  47 SE12      29.63F
CLEBURNE       SUNNY     75  50  41 S18G24    29.61F
GRANBURY       SUNNY     80  47  30 SE17      29.58F
$$

TXZ083>090-098>101-113>116-127>130-139>142-154-155-280000-
WESTERN NORTH TEXAS

CITY           SKY/WX    TMP DP  RH WIND       PRES   REMARKS
WICHITA FALLS  SUNNY     78  46  32 S23G35    29.49F
VERNON         CLOUDY    80  35  19 SE20      29.46R
ABILENE        SUNNY     87  41  19 S23G31    29.47F
ABILENE-DYESS  SUNNY     89  44  20 S21G32    29.46F
GRAHAM         SUNNY     82  50  32 SE16G23   29.50F
BRECKENRIDGE   SUNNY     85  41  21 S21G30    29.49F HAZE
CISCO          SUNNY     84  43  23 S23G30    29.52F
RANGER         SUNNY     80  48  32 S17G28    29.54F
MINERAL WELLS  SUNNY     79  46  31 SE20G26   29.54F
STEPHENVILLE   SUNNY     79  46  31 SE14G22   29.60S
COMANCHE       SUNNY     84  47  27 S17G25    29.56S
BROWNWOOD      SUNNY     82  45  26 S20G25    29.54S
COLEMAN        SUNNY     86  45  23 S13G22    29.53F
$$

TXZ143>147-156>162-174-175-280000-
CENTRAL TEXAS

CITY           SKY/WX    TMP DP  RH WIND       PRES   REMARKS
WACO           SUNNY     79  51  37 S18G24    29.60F
WACO-TSTC      SUNNY     79  48  34 S13G20    29.61
WACO-MCGREGOR  SUNNY     79  51  37 S18G26    29.61F
HILLSBORO      SUNNY     77  52  40 SE10G18   29.61F
CORSICANA      SUNNY     78  53  41 SE15      29.65F
MEXIA          SUNNY     77  50  38 SE16G25   29.63F
HEARNE         SUNNY     79  53  39 SE13G18   29.66F
CAMERON        SUNNY     80  50  35 S10       29.63F
TEMPLE         SUNNY     79  52  38 SE21      29.62F
KILLEEN        SUNNY     80  46  29 SE20G29   29.59F
KILLEEN-SKYLRK SUNNY     81  50  33 S18G28    29.61F
FORT HOOD      SUNNY     82  48  30 S20G25    29.57F
GATESVILLE     SUNNY     81  46  30 S16G23    29.60F
HAMILTON       SUNNY     82  45  26 S16G30    29.59F
LAMPASAS       SUNNY     82  47  29 S13G21    29.59F
$$

TXZ095>097-106>112-122>126-135>138-148>153-164>167-280000-
EAST TEXAS

CITY           SKY/WX    TMP DP  RH WIND       PRES   REMARKS
PARIS          MOSUNNY   72  52  49 SE16      29.65F
SULPHUR SPRNGS SUNNY     73  48  40 S15       29.66F
MOUNT PLEASANT SUNNY     73  51  45 SE10      29.68F
GILMER         SUNNY     73  51  46 SE9       29.68S
MINEOLA        SUNNY     73  50  43 SE9G18    29.65F
TYLER          SUNNY     75  50  41 SE16G22   29.66F
LONGVIEW       SUNNY     74  53  48 SE15G21   29.68F
MARSHALL       SUNNY     73  52  48 SE5       29.71F
ATHENS         SUNNY     73  50  43 S12       29.64F
PALESTINE      SUNNY     77  53  42 SE10G16   29.67F
JACKSONVILLE   SUNNY     75  52  44 S9        29.70F
HENDERSON      SUNNY     76  50  39 SE10G16   29.70S
CENTER         CLEAR     79  54  42 E9        29.72S
NACOGDOCHES    SUNNY     75  54  46 SE9G16    29.68F
LUFKIN         SUNNY     77  53  43 SE10      29.69F
$$

SUPPLEMENTAL OBSERVATIONS (CENTRAL)

CITY           SKY/WX    TMP DP  RH WIND       PRES   REMARKS
DENISON DAM      N/A     72  46  40 SE9         N/A
CADDO GRASSLND   N/A     72  50  46 S8G17       N/A
PAT MAYSE LAKE   N/A     70  46  43 E15         N/A
GREENVILLE       N/A     73  50  43 SE10G18     N/A
CEDAR HILL       N/A     75  48  38 SE14G22     N/A
LAKE LIMESTONE   N/A     81  52  36 S8G17       N/A
TEMPLE           N/A     79  48  34 S17G23      N/A
$$

SUPPLEMENTAL OBSERVATIONS (WEST)

CITY           SKY/WX    TMP DP  RH WIND       PRES   REMARKS
MILLERS CREEK    N/A     82  46  28 SE21G30     N/A
POSSUM KINGDOM   N/A     82  45  26 SE20G29     N/A
LBJ GRASSLAND    N/A     75  46  35 SE16G24     N/A
GRANBURY         N/A     79  46  31 SE20G26     N/A
COMANCHE         N/A     82  43  24 S18G26      N/A
HAMBY            N/A     90  39  17 S22G33      N/A
IVIE RESERVOIR   N/A     88  50  27 S21G29      N/A
COLORADO BEND    N/A     82  43  24 SW16G29     N/A
$$

SUPPLEMENTAL OBSERVATIONS (EAST)

CITY           SKY/WX    TMP DP  RH WIND       PRES   REMARKS
CLARKSVILLE      N/A     72  50  46 SE12        N/A
TEXARKANA        N/A     73  52  46 SE5         N/A
LINDEN           N/A     73  50  43 SE3G12      N/A
CADDO LAKE       N/A     73  52  46 SE6         N/A
GILMER           N/A     73  50  43 S10         N/A
HENDERSON        N/A     77  50  38 SE9G17      N/A
LUFKIN           N/A     79  52  38 MISG        N/A
N SABINE NF      N/A     77  54  44 MISG        N/A
S SABINE NF      N/A     79  55  44 SE2         N/A
$$

SUPPLEMENTAL OBSERVATIONS ARE A COLLECTION OF AUTOMATED INSTRUMENTS
THAT ARE MAINTAINED BY A VARIETY OF FEDERAL AND STATE AGENCIES.
CERTAIN ELEMENTS...SUCH AS HUMIDITY VALUES AND SUSTAINED WIND
SPEEDS...MAY BE APPROXIMATED.




USA.gov is the U.S. government's official web portal to all federal, state and local government web resources and services.